Year,Month,Day,Hour,Minute,Value (Times are PST for insolation in W/m^2)
2021,10,05,00,00,0.00
2021,10,05,00,01,0.00
2021,10,05,00,02,0.00
2021,10,05,00,03,0.00
2021,10,05,00,04,0.00
2021,10,05,00,05,0.00
2021,10,05,00,06,0.00
2021,10,05,00,07,0.00
2021,10,05,00,08,0.00
2021,10,05,00,09,0.00
2021,10,05,00,10,0.00
2021,10,05,00,11,0.00
2021,10,05,00,12,0.00
2021,10,05,00,13,0.00
2021,10,05,00,14,0.00
2021,10,05,00,15,0.00
2021,10,05,00,16,0.00
2021,10,05,00,17,0.00
2021,10,05,00,18,0.00
2021,10,05,00,19,0.00
2021,10,05,00,20,0.00
2021,10,05,00,21,0.00
2021,10,05,00,22,0.00
2021,10,05,00,23,0.00
2021,10,05,00,24,0.00
2021,10,05,00,25,0.00
2021,10,05,00,26,0.00
2021,10,05,00,27,0.00
2021,10,05,00,28,0.00
2021,10,05,00,29,0.00
2021,10,05,00,30,0.00
2021,10,05,00,31,0.00
2021,10,05,00,32,0.00
2021,10,05,00,33,0.00
2021,10,05,00,34,0.00
2021,10,05,00,35,0.00
2021,10,05,00,36,0.00
2021,10,05,00,37,0.00
2021,10,05,00,38,0.00
2021,10,05,00,39,0.00
2021,10,05,00,40,0.00
2021,10,05,00,41,0.00
2021,10,05,00,42,0.00
2021,10,05,00,43,0.00
2021,10,05,00,44,0.00
2021,10,05,00,45,0.00
2021,10,05,00,46,0.00
2021,10,05,00,47,0.00
2021,10,05,00,48,0.00
2021,10,05,00,49,0.00
2021,10,05,00,50,0.00
2021,10,05,00,51,0.00
2021,10,05,00,52,0.00
2021,10,05,00,53,0.00
2021,10,05,00,54,0.00
2021,10,05,00,55,0.00
2021,10,05,00,56,0.00
2021,10,05,00,57,0.00
2021,10,05,00,58,0.00
2021,10,05,00,59,0.00
2021,10,05,01,00,0.00
2021,10,05,01,01,0.00
2021,10,05,01,02,0.00
2021,10,05,01,03,0.00
2021,10,05,01,04,0.00
2021,10,05,01,05,0.00
2021,10,05,01,06,0.00
2021,10,05,01,07,0.00
2021,10,05,01,08,0.00
2021,10,05,01,09,0.00
2021,10,05,01,10,0.00
2021,10,05,01,11,0.00
2021,10,05,01,12,0.00
2021,10,05,01,13,0.00
2021,10,05,01,14,0.00
2021,10,05,01,15,0.00
2021,10,05,01,16,0.00
2021,10,05,01,17,0.00
2021,10,05,01,18,0.00
2021,10,05,01,19,0.00
2021,10,05,01,20,0.00
2021,10,05,01,21,0.00
2021,10,05,01,22,0.00
2021,10,05,01,23,0.00
2021,10,05,01,24,0.00
2021,10,05,01,25,0.00
2021,10,05,01,26,0.00
2021,10,05,01,27,0.00
2021,10,05,01,28,0.00
2021,10,05,01,29,0.00
2021,10,05,01,30,0.00
2021,10,05,01,31,0.00
2021,10,05,01,32,0.00
2021,10,05,01,33,0.00
2021,10,05,01,34,0.00
2021,10,05,01,35,0.00
2021,10,05,01,36,0.00
2021,10,05,01,37,0.00
2021,10,05,01,38,0.00
2021,10,05,01,39,0.00
2021,10,05,01,40,0.00
2021,10,05,01,41,0.00
2021,10,05,01,42,0.00
2021,10,05,01,43,0.00
2021,10,05,01,44,0.00
2021,10,05,01,45,0.00
2021,10,05,01,46,0.00
2021,10,05,01,47,0.00
2021,10,05,01,48,0.00
2021,10,05,01,49,0.00
2021,10,05,01,50,0.00
2021,10,05,01,51,0.00
2021,10,05,01,52,0.00
2021,10,05,01,53,0.00
2021,10,05,01,54,0.00
2021,10,05,01,55,0.00
2021,10,05,01,56,0.00
2021,10,05,01,57,0.00
2021,10,05,01,58,0.00
2021,10,05,01,59,0.00
2021,10,05,02,00,0.00
2021,10,05,02,01,0.00
2021,10,05,02,02,0.00
2021,10,05,02,03,0.00
2021,10,05,02,04,0.00
2021,10,05,02,05,0.00
2021,10,05,02,06,0.00
2021,10,05,02,07,0.00
2021,10,05,02,08,0.00
2021,10,05,02,09,0.00
2021,10,05,02,10,0.00
2021,10,05,02,11,0.00
2021,10,05,02,12,0.00
2021,10,05,02,13,0.00
2021,10,05,02,14,0.00
2021,10,05,02,15,0.00
2021,10,05,02,16,0.00
2021,10,05,02,17,0.00
2021,10,05,02,18,0.00
2021,10,05,02,19,0.00
2021,10,05,02,20,0.00
2021,10,05,02,21,0.00
2021,10,05,02,22,0.00
2021,10,05,02,23,0.00
2021,10,05,02,24,0.00
2021,10,05,02,25,0.00
2021,10,05,02,26,0.00
2021,10,05,02,27,0.00
2021,10,05,02,28,0.00
2021,10,05,02,29,0.00
2021,10,05,02,30,0.00
2021,10,05,02,31,0.00
2021,10,05,02,32,0.00
2021,10,05,02,33,0.00
2021,10,05,02,34,0.00
2021,10,05,02,35,0.00
2021,10,05,02,36,0.00
2021,10,05,02,37,0.00
2021,10,05,02,38,0.00
2021,10,05,02,39,0.00
2021,10,05,02,40,0.00
2021,10,05,02,41,0.00
2021,10,05,02,42,0.00
2021,10,05,02,43,0.00
2021,10,05,02,44,0.00
2021,10,05,02,45,0.00
2021,10,05,02,46,0.00
2021,10,05,02,47,0.00
2021,10,05,02,48,0.00
2021,10,05,02,49,0.00
2021,10,05,02,50,0.00
2021,10,05,02,51,0.00
2021,10,05,02,52,0.00
2021,10,05,02,53,0.00
2021,10,05,02,54,0.00
2021,10,05,02,55,0.00
2021,10,05,02,56,0.00
2021,10,05,02,57,0.00
2021,10,05,02,58,0.00
2021,10,05,02,59,0.00
2021,10,05,03,00,0.00
2021,10,05,03,01,0.00
2021,10,05,03,02,0.00
2021,10,05,03,03,0.00
2021,10,05,03,04,0.00
2021,10,05,03,05,0.00
2021,10,05,03,06,0.00
2021,10,05,03,07,0.00
2021,10,05,03,08,0.00
2021,10,05,03,09,0.00
2021,10,05,03,10,0.00
2021,10,05,03,11,0.00
2021,10,05,03,12,0.00
2021,10,05,03,13,0.00
2021,10,05,03,14,0.00
2021,10,05,03,15,0.00
2021,10,05,03,16,0.00
2021,10,05,03,17,0.00
2021,10,05,03,18,0.00
2021,10,05,03,19,0.00
2021,10,05,03,20,0.00
2021,10,05,03,21,0.00
2021,10,05,03,22,0.00
2021,10,05,03,23,0.00
2021,10,05,03,24,0.00
2021,10,05,03,25,0.00
2021,10,05,03,26,0.00
2021,10,05,03,27,0.00
2021,10,05,03,28,0.00
2021,10,05,03,29,0.00
2021,10,05,03,30,0.00
2021,10,05,03,31,0.00
2021,10,05,03,32,0.00
2021,10,05,03,33,0.00
2021,10,05,03,34,0.00
2021,10,05,03,35,0.00
2021,10,05,03,36,0.00
2021,10,05,03,37,0.00
2021,10,05,03,38,0.00
2021,10,05,03,39,0.00
2021,10,05,03,40,0.00
2021,10,05,03,41,0.00
2021,10,05,03,42,0.00
2021,10,05,03,43,0.00
2021,10,05,03,44,0.00
2021,10,05,03,45,0.00
2021,10,05,03,46,0.00
2021,10,05,03,47,0.00
2021,10,05,03,48,0.00
2021,10,05,03,49,0.00
2021,10,05,03,50,0.00
2021,10,05,03,51,0.00
2021,10,05,03,52,0.00
2021,10,05,03,53,0.00
2021,10,05,03,54,0.00
2021,10,05,03,55,0.00
2021,10,05,03,56,0.00
2021,10,05,03,57,0.00
2021,10,05,03,58,0.00
2021,10,05,03,59,0.00
2021,10,05,04,00,0.00
2021,10,05,04,01,0.00
2021,10,05,04,02,0.00
2021,10,05,04,03,0.00
2021,10,05,04,04,0.00
2021,10,05,04,05,0.00
2021,10,05,04,06,0.00
2021,10,05,04,07,0.00
2021,10,05,04,08,0.00
2021,10,05,04,09,0.00
2021,10,05,04,10,0.00
2021,10,05,04,11,0.00
2021,10,05,04,12,0.00
2021,10,05,04,13,0.00
2021,10,05,04,14,0.00
2021,10,05,04,15,0.00
2021,10,05,04,16,0.00
2021,10,05,04,17,0.00
2021,10,05,04,18,0.00
2021,10,05,04,19,0.00
2021,10,05,04,20,0.00
2021,10,05,04,21,0.00
2021,10,05,04,22,0.00
2021,10,05,04,23,0.00
2021,10,05,04,24,0.00
2021,10,05,04,25,0.00
2021,10,05,04,26,0.00
2021,10,05,04,27,0.00
2021,10,05,04,28,0.00
2021,10,05,04,29,0.00
2021,10,05,04,30,0.00
2021,10,05,04,31,0.00
2021,10,05,04,32,0.00
2021,10,05,04,33,0.00
2021,10,05,04,34,0.00
2021,10,05,04,35,0.00
2021,10,05,04,36,0.00
2021,10,05,04,37,0.00
2021,10,05,04,38,0.00
2021,10,05,04,39,0.00
2021,10,05,04,40,0.00
2021,10,05,04,41,0.00
2021,10,05,04,42,0.00
2021,10,05,04,43,0.00
2021,10,05,04,44,0.00
2021,10,05,04,45,0.00
2021,10,05,04,46,0.00
2021,10,05,04,47,0.00
2021,10,05,04,48,0.00
2021,10,05,04,49,0.00
2021,10,05,04,50,0.00
2021,10,05,04,51,0.00
2021,10,05,04,52,0.00
2021,10,05,04,53,0.00
2021,10,05,04,54,0.00
2021,10,05,04,55,0.00
2021,10,05,04,56,0.00
2021,10,05,04,57,0.00
2021,10,05,04,58,0.00
2021,10,05,04,59,0.00
2021,10,05,05,00,0.00
2021,10,05,05,01,0.00
2021,10,05,05,02,0.00
2021,10,05,05,03,0.00
2021,10,05,05,04,0.00
2021,10,05,05,05,0.00
2021,10,05,05,06,0.00
2021,10,05,05,07,0.00
2021,10,05,05,08,0.00
2021,10,05,05,09,0.00
2021,10,05,05,10,0.00
2021,10,05,05,11,0.00
2021,10,05,05,12,0.00
2021,10,05,05,13,0.00
2021,10,05,05,14,0.00
2021,10,05,05,15,0.00
2021,10,05,05,16,0.00
2021,10,05,05,17,0.00
2021,10,05,05,18,0.00
2021,10,05,05,19,0.00
2021,10,05,05,20,0.00
2021,10,05,05,21,0.00
2021,10,05,05,22,0.00
2021,10,05,05,23,0.00
2021,10,05,05,24,0.00
2021,10,05,05,25,0.00
2021,10,05,05,26,0.00
2021,10,05,05,27,0.00
2021,10,05,05,28,0.00
2021,10,05,05,29,0.00
2021,10,05,05,30,0.00
2021,10,05,05,31,0.00
2021,10,05,05,32,0.00
2021,10,05,05,33,0.00
2021,10,05,05,34,0.00
2021,10,05,05,35,0.00
2021,10,05,05,36,0.00
2021,10,05,05,37,0.00
2021,10,05,05,38,0.00
2021,10,05,05,39,0.00
2021,10,05,05,40,0.00
2021,10,05,05,41,0.00
2021,10,05,05,42,0.00
2021,10,05,05,43,0.00
2021,10,05,05,44,0.00
2021,10,05,05,45,0.00
2021,10,05,05,46,0.00
2021,10,05,05,47,0.00
2021,10,05,05,48,0.00
2021,10,05,05,49,0.00
2021,10,05,05,50,0.00
2021,10,05,05,51,0.00
2021,10,05,05,52,0.00
2021,10,05,05,53,0.00
2021,10,05,05,54,0.00
2021,10,05,05,55,0.00
2021,10,05,05,56,0.00
2021,10,05,05,57,0.00
2021,10,05,05,58,0.00
2021,10,05,05,59,0.00
2021,10,05,06,00,0.00
2021,10,05,06,01,0.00
2021,10,05,06,02,0.00
2021,10,05,06,03,0.00
2021,10,05,06,04,0.00
2021,10,05,06,05,0.00
2021,10,05,06,06,0.00
2021,10,05,06,07,0.00
2021,10,05,06,08,0.00
2021,10,05,06,09,0.00
2021,10,05,06,10,0.00
2021,10,05,06,11,0.00
2021,10,05,06,12,0.00
2021,10,05,06,13,0.00
2021,10,05,06,14,0.00
2021,10,05,06,15,0.00
2021,10,05,06,16,0.00
2021,10,05,06,17,0.00
2021,10,05,06,18,0.00
2021,10,05,06,19,0.00
2021,10,05,06,20,0.00
2021,10,05,06,21,0.00
2021,10,05,06,22,0.00
2021,10,05,06,23,0.00
2021,10,05,06,24,0.00
2021,10,05,06,25,0.00
2021,10,05,06,26,0.00
2021,10,05,06,27,0.00
2021,10,05,06,28,0.00
2021,10,05,06,29,0.00
2021,10,05,06,30,0.00
2021,10,05,06,31,0.00
2021,10,05,06,32,0.00
2021,10,05,06,33,0.00
2021,10,05,06,34,0.00
2021,10,05,06,35,0.00
2021,10,05,06,36,0.00
2021,10,05,06,37,0.00
2021,10,05,06,38,0.00
2021,10,05,06,39,0.00
2021,10,05,06,40,0.00
2021,10,05,06,41,0.00
2021,10,05,06,42,0.00
2021,10,05,06,43,0.00
2021,10,05,06,44,0.00
2021,10,05,06,45,0.00
2021,10,05,06,46,0.00
2021,10,05,06,47,0.00
2021,10,05,06,48,0.00
2021,10,05,06,49,0.00
2021,10,05,06,50,0.00
2021,10,05,06,51,0.00
2021,10,05,06,52,0.00
2021,10,05,06,53,0.00
2021,10,05,06,54,0.00
2021,10,05,06,55,0.00
2021,10,05,06,56,0.00
2021,10,05,06,57,0.00
2021,10,05,06,58,0.00
2021,10,05,06,59,0.00
2021,10,05,07,00,0.00
2021,10,05,07,01,0.00
2021,10,05,07,02,0.00
2021,10,05,07,03,0.00
2021,10,05,07,04,0.00
2021,10,05,07,05,0.00
2021,10,05,07,06,0.00
2021,10,05,07,07,0.00
2021,10,05,07,08,0.00
2021,10,05,07,09,0.00
2021,10,05,07,10,0.00
2021,10,05,07,11,0.00
2021,10,05,07,12,0.00
2021,10,05,07,13,0.00
2021,10,05,07,14,0.00
2021,10,05,07,15,0.00
2021,10,05,07,16,0.00
2021,10,05,07,17,0.00
2021,10,05,07,18,0.00
2021,10,05,07,19,0.00
2021,10,05,07,20,0.00
2021,10,05,07,21,0.00
2021,10,05,07,22,0.00
2021,10,05,07,23,0.00
2021,10,05,07,24,0.00
2021,10,05,07,25,0.00
2021,10,05,07,26,0.00
2021,10,05,07,27,0.00
2021,10,05,07,28,0.00
2021,10,05,07,29,0.00
2021,10,05,07,30,0.00
2021,10,05,07,31,0.00
2021,10,05,07,32,0.00
2021,10,05,07,33,0.00
2021,10,05,07,34,0.00
2021,10,05,07,35,0.00
2021,10,05,07,36,0.00
2021,10,05,07,37,0.00
2021,10,05,07,38,0.00
2021,10,05,07,39,0.00
2021,10,05,07,40,0.00
2021,10,05,07,41,0.00
2021,10,05,07,42,0.00
2021,10,05,07,43,0.00
2021,10,05,07,44,0.00
2021,10,05,07,45,0.00
2021,10,05,07,46,0.00
2021,10,05,07,47,0.00
2021,10,05,07,48,0.00
2021,10,05,07,49,0.00
2021,10,05,07,50,0.00
2021,10,05,07,51,1.10
2021,10,05,07,52,5.00
2021,10,05,07,53,6.00
2021,10,05,07,54,5.80
2021,10,05,07,55,5.00
2021,10,05,07,56,5.00
2021,10,05,07,57,0.00
2021,10,05,07,58,0.00
2021,10,05,07,59,0.00
2021,10,05,08,00,2.50
2021,10,05,08,01,5.00
2021,10,05,08,02,6.40
2021,10,05,08,03,7.00
2021,10,05,08,04,9.00
2021,10,05,08,05,9.00
2021,10,05,08,06,9.00
2021,10,05,08,07,9.00
2021,10,05,08,08,9.00
2021,10,05,08,09,9.00
2021,10,05,08,10,9.00
2021,10,05,08,11,9.00
2021,10,05,08,12,9.00
2021,10,05,08,13,8.20
2021,10,05,08,14,7.00
2021,10,05,08,15,7.00
2021,10,05,08,16,7.00
2021,10,05,08,17,5.20
2021,10,05,08,18,5.20
2021,10,05,08,19,7.00
2021,10,05,08,20,7.00
2021,10,05,08,21,7.00
2021,10,05,08,22,8.20
2021,10,05,08,23,9.00
2021,10,05,08,24,9.00
2021,10,05,08,25,9.20
2021,10,05,08,26,11.20
2021,10,05,08,27,12.00
2021,10,05,08,28,12.00
2021,10,05,08,29,13.20
2021,10,05,08,30,14.00
2021,10,05,08,31,15.70
2021,10,05,08,32,18.10
2021,10,05,08,33,19.00
2021,10,05,08,34,18.60
2021,10,05,08,35,18.00
2021,10,05,08,36,16.80
2021,10,05,08,37,16.00
2021,10,05,08,38,16.00
2021,10,05,08,39,18.30
2021,10,05,08,40,22.80
2021,10,05,08,41,30.50
2021,10,05,08,42,36.90
2021,10,05,08,43,37.80
2021,10,05,08,44,35.50
2021,10,05,08,45,36.70
2021,10,05,08,46,40.40
2021,10,05,08,47,44.00
2021,10,05,08,48,43.30
2021,10,05,08,49,41.00
2021,10,05,08,50,38.20
2021,10,05,08,51,35.60
2021,10,05,08,52,35.00
2021,10,05,08,53,34.80
2021,10,05,08,54,32.80
2021,10,05,08,55,31.20
2021,10,05,08,56,29.00
2021,10,05,08,57,29.20
2021,10,05,08,58,33.80
2021,10,05,08,59,38.40
2021,10,05,09,00,39.00
2021,10,05,09,01,38.50
2021,10,05,09,02,37.00
2021,10,05,09,03,38.00
2021,10,05,09,04,39.60
2021,10,05,09,05,40.00
2021,10,05,09,06,39.10
2021,10,05,09,07,39.10
2021,10,05,09,08,40.50
2021,10,05,09,09,42.00
2021,10,05,09,10,42.00
2021,10,05,09,11,40.80
2021,10,05,09,12,40.00
2021,10,05,09,13,41.70
2021,10,05,09,14,41.60
2021,10,05,09,15,38.00
2021,10,05,09,16,33.20
2021,10,05,09,17,28.10
2021,10,05,09,18,24.20
2021,10,05,09,19,20.00
2021,10,05,09,20,18.10
2021,10,05,09,21,18.10
2021,10,05,09,22,19.00
2021,10,05,09,23,19.00
2021,10,05,09,24,18.50
2021,10,05,09,25,18.60
2021,10,05,09,26,19.00
2021,10,05,09,27,25.00
2021,10,05,09,28,33.60
2021,10,05,09,29,39.60
2021,10,05,09,30,42.00
2021,10,05,09,31,41.00
2021,10,05,09,32,39.40
2021,10,05,09,33,37.50
2021,10,05,09,34,38.70
2021,10,05,09,35,40.40
2021,10,05,09,36,44.00
2021,10,05,09,37,42.20
2021,10,05,09,38,37.10
2021,10,05,09,39,33.20
2021,10,05,09,40,29.10
2021,10,05,09,41,26.30
2021,10,05,09,42,28.40
2021,10,05,09,43,32.60
2021,10,05,09,44,34.20
2021,10,05,09,45,32.50
2021,10,05,09,46,32.00
2021,10,05,09,47,32.00
2021,10,05,09,48,32.00
2021,10,05,09,49,30.00
2021,10,05,09,50,30.00
2021,10,05,09,51,30.00
2021,10,05,09,52,30.00
2021,10,05,09,53,30.00
2021,10,05,09,54,31.50
2021,10,05,09,55,34.60
2021,10,05,09,56,39.30
2021,10,05,09,57,43.20
2021,10,05,09,58,48.40
2021,10,05,09,59,52.40
2021,10,05,10,00,58.90
2021,10,05,10,01,69.50
2021,10,05,10,02,75.40
2021,10,05,10,03,58.70
2021,10,05,10,04,39.00
2021,10,05,10,05,29.30
2021,10,05,10,06,30.50
2021,10,05,10,07,38.60
2021,10,05,10,08,43.50
2021,10,05,10,09,42.30
2021,10,05,10,10,39.00
2021,10,05,10,11,39.00
2021,10,05,10,12,40.10
2021,10,05,10,13,44.50
2021,10,05,10,14,48.20
2021,10,05,10,15,45.40
2021,10,05,10,16,36.30
2021,10,05,10,17,34.00
2021,10,05,10,18,28.50
2021,10,05,10,19,31.80
2021,10,05,10,20,36.90
2021,10,05,10,21,39.00
2021,10,05,10,22,36.00
2021,10,05,10,23,33.30
2021,10,05,10,24,35.20
2021,10,05,10,25,37.00
2021,10,05,10,26,37.00
2021,10,05,10,27,39.50
2021,10,05,10,28,45.10
2021,10,05,10,29,48.50
2021,10,05,10,30,44.70
2021,10,05,10,31,34.80
2021,10,05,10,32,29.10
2021,10,05,10,33,26.70
2021,10,05,10,34,28.00
2021,10,05,10,35,29.20
2021,10,05,10,36,31.50
2021,10,05,10,37,32.90
2021,10,05,10,38,37.00
2021,10,05,10,39,37.50
2021,10,05,10,40,39.40
2021,10,05,10,41,41.00
2021,10,05,10,42,44.40
2021,10,05,10,43,48.20
2021,10,05,10,44,53.30
2021,10,05,10,45,62.30
2021,10,05,10,46,64.60
2021,10,05,10,47,61.90
2021,10,05,10,48,59.00
2021,10,05,10,49,59.20
2021,10,05,10,50,58.60
2021,10,05,10,51,54.60
2021,10,05,10,52,50.90
2021,10,05,10,53,48.60
2021,10,05,10,54,47.00
2021,10,05,10,55,47.00
2021,10,05,10,56,47.00
2021,10,05,10,57,43.20
2021,10,05,10,58,37.70
2021,10,05,10,59,32.70
2021,10,05,11,00,30.00
2021,10,05,11,01,29.30
2021,10,05,11,02,27.00
2021,10,05,11,03,25.40
2021,10,05,11,04,25.00
2021,10,05,11,05,23.30
2021,10,05,11,06,21.00
2021,10,05,11,07,21.40
2021,10,05,11,08,24.90
2021,10,05,11,09,31.50
2021,10,05,11,10,42.30
2021,10,05,11,11,56.80
2021,10,05,11,12,64.30
2021,10,05,11,13,59.00
2021,10,05,11,14,49.80
2021,10,05,11,15,43.90
2021,10,05,11,16,39.50
2021,10,05,11,17,39.00
2021,10,05,11,18,39.80
2021,10,05,11,19,39.10
2021,10,05,11,20,40.40
2021,10,05,11,21,44.40
2021,10,05,11,22,46.40
2021,10,05,11,23,47.90
2021,10,05,11,24,51.40
2021,10,05,11,25,55.20
2021,10,05,11,26,61.40
2021,10,05,11,27,65.20
2021,10,05,11,28,67.00
2021,10,05,11,29,66.30
2021,10,05,11,30,66.00
2021,10,05,11,31,70.00
2021,10,05,11,32,75.00
2021,10,05,11,33,76.90
2021,10,05,11,34,77.00
2021,10,05,11,35,77.00
2021,10,05,11,36,77.80
2021,10,05,11,37,81.50
2021,10,05,11,38,88.20
2021,10,05,11,39,95.50
2021,10,05,11,40,97.00
2021,10,05,11,41,97.40
2021,10,05,11,42,101.80
2021,10,05,11,43,109.50
2021,10,05,11,44,117.50
2021,10,05,11,45,124.60
2021,10,05,11,46,127.80
2021,10,05,11,47,129.70
2021,10,05,11,48,135.60
2021,10,05,11,49,143.00
2021,10,05,11,50,147.20
2021,10,05,11,51,148.50
2021,10,05,11,52,138.30
2021,10,05,11,53,113.20
2021,10,05,11,54,89.00
2021,10,05,11,55,75.60
2021,10,05,11,56,67.60
2021,10,05,11,57,63.00
2021,10,05,11,58,64.00
2021,10,05,11,59,65.00
2021,10,05,12,00,68.00
2021,10,05,12,01,73.30
2021,10,05,12,02,85.90
2021,10,05,12,03,108.20
2021,10,05,12,04,139.50
2021,10,05,12,05,177.30
2021,10,05,12,06,210.20
2021,10,05,12,07,226.50
2021,10,05,12,08,225.40
2021,10,05,12,09,224.60
2021,10,05,12,10,235.80
2021,10,05,12,11,243.00
2021,10,05,12,12,246.00
2021,10,05,12,13,247.20
2021,10,05,12,14,255.50
2021,10,05,12,15,267.40
2021,10,05,12,16,284.00
2021,10,05,12,17,316.00
2021,10,05,12,18,383.00
2021,10,05,12,19,401.00
2021,10,05,12,20,526.40
2021,10,05,12,21,603.00
2021,10,05,12,22,603.00
2021,10,05,12,23,617.70
2021,10,05,12,24,740.00
2021,10,05,12,25,643.20
2021,10,05,12,26,470.90
2021,10,05,12,27,473.00
2021,10,05,12,28,629.80
2021,10,05,12,29,682.00
2021,10,05,12,30,633.90
2021,10,05,12,31,345.00
2021,10,05,12,32,345.00
2021,10,05,12,33,318.10
2021,10,05,12,34,287.00
2021,10,05,12,35,287.00
2021,10,05,12,36,678.70
2021,10,05,12,37,782.60
2021,10,05,12,38,743.50
2021,10,05,12,39,701.10
2021,10,05,12,40,687.20
2021,10,05,12,41,669.70
2021,10,05,12,42,658.70
2021,10,05,12,43,644.90
2021,10,05,12,44,642.50
2021,10,05,12,45,647.00
2021,10,05,12,46,649.70
2021,10,05,12,47,664.50
2021,10,05,12,48,682.10
2021,10,05,12,49,644.80
2021,10,05,12,50,631.00
2021,10,05,12,51,631.00
2021,10,05,12,52,631.00
2021,10,05,12,53,642.80
2021,10,05,12,54,661.00
2021,10,05,12,55,661.00
2021,10,05,12,56,661.00
2021,10,05,12,57,661.00
2021,10,05,12,58,661.00
2021,10,05,12,59,661.00
2021,10,05,13,00,661.00
2021,10,05,13,01,661.00
2021,10,05,13,02,661.00
2021,10,05,13,03,678.20
2021,10,05,13,04,666.90
2021,10,05,13,05,609.00
2021,10,05,13,06,168.20
2021,10,05,13,07,220.00
2021,10,05,13,08,421.00
2021,10,05,13,09,622.00
2021,10,05,13,10,622.00
2021,10,05,13,11,622.00
2021,10,05,13,12,629.00
2021,10,05,13,13,687.00
2021,10,05,13,14,530.90
2021,10,05,13,15,250.00
2021,10,05,13,16,250.00
2021,10,05,13,17,250.00
2021,10,05,13,18,182.30
2021,10,05,13,19,171.80
2021,10,05,13,20,179.80
2021,10,05,13,21,187.50
2021,10,05,13,22,191.10
2021,10,05,13,23,186.90
2021,10,05,13,24,185.80
2021,10,05,13,25,195.40
2021,10,05,13,26,205.10
2021,10,05,13,27,218.50
2021,10,05,13,28,257.00
2021,10,05,13,29,302.00
2021,10,05,13,30,302.00
2021,10,05,13,31,742.20
2021,10,05,13,32,889.00
2021,10,05,13,33,478.00
2021,10,05,13,34,574.40
2021,10,05,13,35,924.20
2021,10,05,13,36,918.00
2021,10,05,13,37,918.00
2021,10,05,13,38,918.00
2021,10,05,13,39,918.00
2021,10,05,13,40,918.00
2021,10,05,13,41,765.00
2021,10,05,13,42,299.20
2021,10,05,13,43,281.50
2021,10,05,13,44,276.00
2021,10,05,13,45,270.80
2021,10,05,13,46,270.70
2021,10,05,13,47,289.50
2021,10,05,13,48,341.00
2021,10,05,13,49,363.00
2021,10,05,13,50,323.50
2021,10,05,13,51,309.10
2021,10,05,13,52,306.30
2021,10,05,13,53,308.00
2021,10,05,13,54,863.00
2021,10,05,13,55,755.00
2021,10,05,13,56,407.80
2021,10,05,13,57,366.00
2021,10,05,13,58,366.00
2021,10,05,13,59,366.00
2021,10,05,14,00,366.00
2021,10,05,14,01,366.00
2021,10,05,14,02,380.80
2021,10,05,14,03,425.00
2021,10,05,14,04,332.80
2021,10,05,14,05,227.30
2021,10,05,14,06,212.50
2021,10,05,14,07,189.30
2021,10,05,14,08,153.40
2021,10,05,14,09,127.80
2021,10,05,14,10,120.60
2021,10,05,14,11,125.00
2021,10,05,14,12,128.80
2021,10,05,14,13,105.50
2021,10,05,14,14,81.70
2021,10,05,14,15,73.60
2021,10,05,14,16,69.80
2021,10,05,14,17,69.00
2021,10,05,14,18,70.40
2021,10,05,14,19,76.20
2021,10,05,14,20,84.20
2021,10,05,14,21,89.40
2021,10,05,14,22,103.50
2021,10,05,14,23,126.30
2021,10,05,14,24,146.00
2021,10,05,14,25,146.00
2021,10,05,14,26,211.50
2021,10,05,14,27,284.00
2021,10,05,14,28,289.00
2021,10,05,14,29,329.50
2021,10,05,14,30,346.60
2021,10,05,14,31,341.20
2021,10,05,14,32,353.00
2021,10,05,14,33,363.90
2021,10,05,14,34,377.80
2021,10,05,14,35,348.30
2021,10,05,14,36,314.50
2021,10,05,14,37,294.50
2021,10,05,14,38,267.70
2021,10,05,14,39,244.10
2021,10,05,14,40,219.10
2021,10,05,14,41,214.00
2021,10,05,14,42,214.00
2021,10,05,14,43,214.00
2021,10,05,14,44,214.00
2021,10,05,14,45,214.00
2021,10,05,14,46,214.00
2021,10,05,14,47,198.20
2021,10,05,14,48,227.80
2021,10,05,14,49,217.00
2021,10,05,14,50,210.40
2021,10,05,14,51,204.00
2021,10,05,14,52,188.20
2021,10,05,14,53,172.50
2021,10,05,14,54,161.10
2021,10,05,14,55,138.00
2021,10,05,14,56,122.60
2021,10,05,14,57,107.50
2021,10,05,14,58,93.50
2021,10,05,14,59,86.10
2021,10,05,15,00,83.00
2021,10,05,15,01,83.60
2021,10,05,15,02,85.50
2021,10,05,15,03,87.70
2021,10,05,15,04,84.00
2021,10,05,15,05,83.80
2021,10,05,15,06,83.00
2021,10,05,15,07,83.50
2021,10,05,15,08,84.00
2021,10,05,15,09,85.50
2021,10,05,15,10,83.40
2021,10,05,15,11,83.00
2021,10,05,15,12,82.00
2021,10,05,15,13,81.00
2021,10,05,15,14,89.50
2021,10,05,15,15,100.50
2021,10,05,15,16,102.50
2021,10,05,15,17,100.20
2021,10,05,15,18,97.70
2021,10,05,15,19,95.50
2021,10,05,15,20,98.80
2021,10,05,15,21,99.50
2021,10,05,15,22,88.50
2021,10,05,15,23,75.00
2021,10,05,15,24,67.50
2021,10,05,15,25,68.80
2021,10,05,15,26,66.00
2021,10,05,15,27,63.00
2021,10,05,15,28,64.00
2021,10,05,15,29,63.70
2021,10,05,15,30,59.20
2021,10,05,15,31,58.00
2021,10,05,15,32,55.90
2021,10,05,15,33,55.00
2021,10,05,15,34,59.80
2021,10,05,15,35,65.00
2021,10,05,15,36,68.20
2021,10,05,15,37,67.50
2021,10,05,15,38,63.60
2021,10,05,15,39,59.20
2021,10,05,15,40,54.00
2021,10,05,15,41,56.90
2021,10,05,15,42,60.00
2021,10,05,15,43,58.00
2021,10,05,15,44,55.00
2021,10,05,15,45,43.70
2021,10,05,15,46,42.50
2021,10,05,15,47,50.10
2021,10,05,15,48,62.00
2021,10,05,15,49,67.00
2021,10,05,15,50,73.20
2021,10,05,15,51,83.20
2021,10,05,15,52,90.50
2021,10,05,15,53,83.50
2021,10,05,15,54,77.80
2021,10,05,15,55,74.70
2021,10,05,15,56,76.50
2021,10,05,15,57,89.90
2021,10,05,15,58,104.50
2021,10,05,15,59,96.70
2021,10,05,16,00,86.90
2021,10,05,16,01,90.20
2021,10,05,16,02,89.90
2021,10,05,16,03,86.10
2021,10,05,16,04,80.80
2021,10,05,16,05,103.00
2021,10,05,16,06,91.20
2021,10,05,16,07,88.00
2021,10,05,16,08,88.00
2021,10,05,16,09,88.00
2021,10,05,16,10,106.10
2021,10,05,16,11,127.00
2021,10,05,16,12,127.00
2021,10,05,16,13,376.40
2021,10,05,16,14,420.00
2021,10,05,16,15,404.80
2021,10,05,16,16,388.40
2021,10,05,16,17,452.00
2021,10,05,16,18,431.70
2021,10,05,16,19,351.20
2021,10,05,16,20,333.40
2021,10,05,16,21,312.90
2021,10,05,16,22,135.30
2021,10,05,16,23,139.30
2021,10,05,16,24,142.00
2021,10,05,16,25,176.00
2021,10,05,16,26,207.00
2021,10,05,16,27,318.60
2021,10,05,16,28,366.90
2021,10,05,16,29,408.00
2021,10,05,16,30,408.00
2021,10,05,16,31,405.50
2021,10,05,16,32,400.60
2021,10,05,16,33,359.00
2021,10,05,16,34,343.00
2021,10,05,16,35,193.00
2021,10,05,16,36,169.80
2021,10,05,16,37,149.90
2021,10,05,16,38,151.40
2021,10,05,16,39,153.80
2021,10,05,16,40,139.50
2021,10,05,16,41,126.40
2021,10,05,16,42,119.00
2021,10,05,16,43,109.10
2021,10,05,16,44,102.00
2021,10,05,16,45,98.50
2021,10,05,16,46,87.70
2021,10,05,16,47,76.20
2021,10,05,16,48,75.70
2021,10,05,16,49,70.00
2021,10,05,16,50,73.20
2021,10,05,16,51,78.40
2021,10,05,16,52,65.20
2021,10,05,16,53,61.20
2021,10,05,16,54,60.50
2021,10,05,16,55,56.60
2021,10,05,16,56,53.60
2021,10,05,16,57,50.50
2021,10,05,16,58,49.00
2021,10,05,16,59,51.30
2021,10,05,17,00,55.20
2021,10,05,17,01,53.80
2021,10,05,17,02,47.90
2021,10,05,17,03,49.00
2021,10,05,17,04,50.00
2021,10,05,17,05,55.50
2021,10,05,17,06,63.20
2021,10,05,17,07,71.30
2021,10,05,17,08,83.00
2021,10,05,17,09,116.00
2021,10,05,17,10,143.00
2021,10,05,17,11,146.40
2021,10,05,17,12,124.90
2021,10,05,17,13,107.00
2021,10,05,17,14,93.60
2021,10,05,17,15,84.80
2021,10,05,17,16,77.00
2021,10,05,17,17,68.60
2021,10,05,17,18,61.20
2021,10,05,17,19,53.50
2021,10,05,17,20,48.00
2021,10,05,17,21,48.20
2021,10,05,17,22,49.00
2021,10,05,17,23,49.00
2021,10,05,17,24,50.80
2021,10,05,17,25,48.20
2021,10,05,17,26,44.60
2021,10,05,17,27,42.00
2021,10,05,17,28,43.30
2021,10,05,17,29,44.00
2021,10,05,17,30,45.70
2021,10,05,17,31,46.90